Find Starlink 2585

NORAD ID: 48382 Int'l Des: 2021-038 Owner: SPXS Country: US Constellation: starlink operational
LEOCIRCULAR

Live-Position

3D-Globus wird geladen...

Über Starlink 2585

Beschreibung wird geladen...

Nächste Überflüge

Passes for default location (London). Set your location on the main map for personalized predictions.

Höhenverlauf

Loading altitude history...

Zweizeiliger Elementsatz

1 48382U 21038AF 26122.66209434 .00003623 00000-0 12845-3 0 9993
2 48382 53.1604 96.8605 0001185 100.6232 259.4903 15.31703213275494
Epoch: 2. Mai 2026 • Age: 11 hours

Aktueller Status

Höhe 474.9 km
Geschwindigkeit 7.63 km/s
Subsatellitenpunkt 45.56°N, 123.79°W
Startdatum 4. Mai 2021
Alter 4.9 years
Typ internet

Technische Details

Klassifizierung Payload
Masse 260.00 kg
Trockenmasse 248.00 kg
Gesamtmasse 260.00 kg
Länge 0.20 m
Durchmesser 2.80 m
Spannweite 9.00 m
Form Box + pan
Hersteller SPXS
Bus-Typ Starlink
Phasenstatus In Orbit
Besitzer/Staat SPXS/US

Most Searched